Location: Paderno d�Adda
(45.6667°N, 9.4333°E)
Time: 22:59:04
(UTC+00:00)

Cosmos 1125 Rocket - Pass Details

Date: 20 January 2021
Orbit: 757 x 780 km, 74.0° (Epoch: 08 March)

Event Time Altitude Azimuth Distance (km) Brightness Sun altitude
Exits shadow 04:12:38 - 357° (N) 3,004 6.5 -28.2°
Reaches altitude 10° 04:15:58 10° 25° (NNE) 2,335 6.2 -27.6°
Maximum altitude 04:17:44 12° 44° (NE) 2,227 6.4 -27.3°
Drops below altitude 10° 04:19:30 10° 64° (ENE) 2,335 6.8 -27.0°
Sets 04:23:46 0° 97° (E) 3,261 8.1 -26.2°
